GFSNW_sfc_thetae_021.txt.gz
Theta_e
306 306 307 306 306 305 306 305 296 307 313 296 298 291 292 293 293 295 293 293 291 289 290 288 288 288 292 295 296 292 297 294 292 295 302 303 302 301 301 297 297 299 300 299
306 306 306 307 306 306 305 300 301 308 306 291 290 293 292 294 292 293 291 290 293 294 290 287 290 291 296 295 294 293 297 294 289 292 299 301 299 302 304 304 304 299 297 299
307 306 306 307 307 306 305 301 295 301 304 297 292 289 291 290 294 293 295 292 293 291 290 293 289 290 293 295 295 297 295 294 293 288 294 298 297 300 303 303 299 300 300 302
307 307 307 307 307 306 306 303 296 297 292 294 292 291 291 289 288 293 295 292 291 291 288 289 289 291 293 294 296 295 294 291 294 294 296 298 299 300 302 301 303 300 302 302
306 307 307 307 307 306 305 297 295 298 294 294 291 292 290 289 291 291 290 290 293 293 289 291 288 290 292 291 294 294 297 292 294 290 295 298 298 300 301 303 303 303 304 303
306 307 307 307 307 306 303 304 302 296 293 293 290 291 291 290 292 294 295 293 293 292 293 296 297 297 297 296 293 292 292 294 291 286 294 296 293 299 301 302 305 304 300 305
306 307 307 307 308 307 307 305 302 295 290 293 292 292 292 292 293 290 295 296 294 297 302 302 300 299 297 297 296 296 292 292 292 289 292 286 298 305 304 303 305 307 306 307
305 306 307 307 308 308 305 308 301 296 289 293 293 293 293 295 296 294 295 297 301 302 299 292 291 291 292 293 295 296 297 292 289 286 289 296 298 303 302 302 302 308 307 307
304 305 306 307 307 308 307 307 307 299 291 294 296 293 293 291 291 294 295 301 304 302 294 291 286 284 288 286 290 296 296 296 289 291 288 285 296 305 308 308 299 308 309 309
304 305 306 306 307 308 308 306 311 301 293 298 297 293 292 295 294 290 294 297 298 301 291 287 286 287 292 285 287 288 291 291 289 290 292 295 300 306 307 297 298 309 310 311
304 304 305 306 306 307 307 306 312 302 296 299 300 299 296 296 295 290 296 295 297 295 289 288 287 287 289 287 288 289 288 288 291 293 291 288 303 305 301 304 309 310 310 311
303 304 305 305 306 306 307 304 310 309 298 299 305 305 306 304 301 294 293 295 294 294 288 291 290 288 290 289 286 294 288 291 288 291 288 297 302 302 306 308 309 309 310 311
304 304 305 305 305 306 306 307 306 303 298 301 303 300 307 307 305 304 290 294 296 297 297 291 289 287 292 287 289 290 293 296 291 293 294 297 300 303 304 307 307 311 311 312
305 305 305 305 305 305 305 305 308 303 300 293 299 309 304 309 308 303 300 296 298 298 297 293 293 291 297 293 292 291 293 294 292 291 294 300 301 303 304 306 309 310 312 312
305 305 305 306 304 305 305 306 310 309 301 295 298 306 308 307 305 306 301 298 295 295 295 296 296 297 297 297 296 293 296 292 291 290 296 297 300 304 306 306 307 309 310 311
306 305 304 304 305 304 305 301 310 310 308 295 293 306 304 305 307 305 305 303 301 299 299 298 301 301 297 294 291 297 298 300 300 296 301 303 305 305 307 306 309 310 310 312
305 305 305 304 307 309 306 303 307 309 308 297 295 297 304 306 306 306 306 306 302 301 299 299 299 298 298 296 290 296 298 300 301 303 302 299 302 302 306 308 309 310 311 313
305 304 304 306 307 307 306 309 307 309 304 300 293 296 299 307 299 299 303 301 304 304 300 301 298 299 299 292 294 298 298 299 301 301 303 304 306 307 306 308 309 309 309 311
304 304 305 308 308 304 305 307 305 309 303 295 296 295 294 303 300 302 301 302 296 305 300 300 298 296 289 292 294 296 299 297 299 303 303 304 305 305 305 305 306 308 308 310
304 305 307 302 304 305 306 303 298 299 300 300 297 301 298 302 300 296 298 301 298 294 299 303 298 293 299 299 300 300 303 302 301 299 301 303 303 302 305 305 307 308 308 309
307 303 302 304 305 305 302 296 295 297 294 300 301 301 298 306 296 295 298 295 299 292 296 297 294 292 296 301 301 304 305 306 303 302 303 304 305 304 304 305 307 309 309 310
300 300 302 303 299 298 294 295 298 297 295 301 298 300 302 303 305 296 297 291 295 289 301 297 289 296 299 300 300 302 303 303 303 305 303 305 306 307 306 306 306 307 309 311
303 296 292 294 298 289 290 288 293 295 299 300 301 298 302 303 303 296 294 287 289 300 295 293 296 299 300 302 301 301 303 303 303 303 304 305 304 306 307 304 306 307 308 309
298 294 289 293 292 294 296 296 297 301 301 300 301 299 299 301 296 296 288 294 297 288 288 289 297 301 301 302 302 302 303 303 302 303 305 305 307 305 304 304 305 304 305 308
297 296 287 293 298 300 301 301 301 303 303 302 300 299 300 298 293 295 291 289 286 291 292 301 304 304 304 303 304 303 302 304 304 305 305 305 305 306 306 306 305 305 305 306
298 297 295 300 298 298 299 300 299 302 303 304 301 295 294 292 295 290 288 288 286 291 301 302 305 304 305 306 306 305 305 305 304 305 305 305 305 305 306 306 307 305 305 303
294 296 301 300 300 300 301 301 301 304 301 296 296 291 290 300 292 290 295 290 298 301 301 303 305 304 305 308 307 306 306 305 305 305 305 305 306 306 306 304 306 306 304 304

GFSNW_sfc_thetae_024.txt.gz
Theta_e
308 308 307 307 307 305 305 306 297 309 311 298 300 292 293 294 294 296 293 293 291 289 290 288 289 289 292 297 296 291 295 292 287 290 300 299 300 297 299 294 293 297 297 298
307 307 307 307 307 306 304 302 301 310 307 292 291 294 293 294 293 294 293 292 293 293 290 286 291 291 296 297 295 292 294 291 285 288 295 300 297 299 301 302 303 297 294 297
307 307 307 307 307 306 305 302 294 300 302 300 294 291 290 290 296 294 294 292 294 293 289 292 289 289 295 297 296 298 295 291 288 285 289 295 294 297 300 301 296 297 299 302
307 307 308 307 307 306 305 303 296 299 291 293 293 293 291 290 289 294 294 292 292 290 287 289 289 292 293 296 296 296 293 287 291 291 292 294 295 297 298 298 301 297 301 302
306 307 307 307 307 306 305 297 295 298 294 296 294 293 291 290 291 292 291 290 291 292 289 290 288 291 292 291 295 294 296 288 291 289 292 292 291 297 299 300 301 302 303 304
306 306 307 307 307 307 302 304 304 298 294 294 292 292 292 291 294 295 295 294 293 291 293 296 296 297 296 295 293 292 292 291 288 285 291 290 289 297 299 301 304 304 301 308
306 306 307 307 307 307 303 302 303 295 290 293 292 294 293 292 293 292 296 296 294 298 302 301 300 298 297 296 295 296 291 291 290 287 289 281 297 304 303 302 306 307 308 310
305 306 306 307 307 308 305 305 302 297 290 293 293 294 293 295 296 294 295 297 299 302 299 292 290 291 292 293 295 295 296 292 288 286 286 290 296 301 301 301 302 307 307 309
304 305 306 306 307 307 306 306 307 300 293 293 297 294 294 292 292 294 295 301 304 302 294 291 285 283 287 288 291 298 296 296 291 288 283 286 297 303 307 307 298 308 310 310
306 305 305 305 306 307 306 305 312 303 294 299 298 295 293 296 295 291 295 296 296 301 293 286 286 285 289 286 287 289 290 292 287 286 285 290 299 300 308 295 297 310 311 311
306 306 305 305 306 306 305 304 310 305 297 299 301 302 297 298 297 290 294 292 294 294 288 287 287 287 288 288 289 289 288 288 288 290 286 284 299 301 297 301 310 310 310 311
306 306 307 306 306 306 306 300 309 311 300 299 305 305 306 305 302 298 293 291 294 294 291 291 290 287 289 288 285 295 287 290 288 291 287 295 301 301 304 306 307 309 310 312
306 306 307 307 306 305 305 301 305 304 298 300 303 302 307 310 308 309 293 294 296 296 298 292 289 286 292 286 287 290 293 296 291 292 294 296 300 304 305 307 307 310 312 313
305 306 307 307 306 306 305 301 307 304 299 293 299 310 305 311 310 307 305 300 299 298 297 293 292 290 298 292 292 291 294 296 292 292 295 299 300 302 303 306 308 309 311 313
306 306 307 307 305 305 305 305 308 308 300 294 297 304 309 310 309 306 306 301 296 295 295 294 295 298 297 299 296 292 297 294 291 290 298 298 298 302 305 305 307 309 309 311
306 306 306 306 305 305 305 301 309 310 308 297 292 305 305 307 308 306 306 305 300 298 298 298 299 303 298 293 290 296 298 300 301 297 302 302 303 305 305 305 308 309 310 312
305 305 306 305 305 306 305 302 305 309 310 298 294 297 306 306 307 306 306 308 303 303 300 300 299 300 302 294 290 295 298 300 301 302 303 300 302 301 305 307 308 310 311 312
306 306 306 305 306 306 306 310 306 309 306 302 292 295 299 308 302 299 306 301 305 303 300 300 299 300 298 291 294 298 299 301 301 303 303 304 305 306 306 307 308 307 309 310
305 305 305 307 306 305 304 306 306 310 305 295 295 294 294 306 301 303 302 303 298 304 298 299 300 296 292 295 297 298 299 298 299 302 302 303 304 303 304 305 306 305 307 309
305 305 305 302 304 306 307 304 300 298 299 300 295 301 298 301 300 299 299 301 298 293 298 301 297 294 300 301 302 302 302 303 303 299 299 302 302 303 304 305 306 307 307 308
306 302 301 305 307 305 303 297 295 297 294 299 300 300 297 305 297 296 299 296 297 292 296 295 294 293 297 301 301 304 304 304 304 304 304 305 304 304 304 304 305 307 308 308
300 299 301 303 299 298 293 294 298 297 295 299 299 299 302 303 304 298 298 293 295 290 300 295 291 296 300 300 301 303 304 303 303 305 304 304 304 304 304 304 303 304 306 308
302 297 293 294 296 290 290 288 293 294 299 300 300 298 302 302 301 297 296 289 289 299 294 292 296 300 301 302 302 303 304 303 303 304 304 304 304 305 305 303 304 305 307 307
297 293 288 291 291 294 296 297 297 301 301 299 300 298 299 301 297 295 289 294 296 288 288 289 298 299 302 302 303 302 302 303 303 304 305 304 304 304 305 305 304 303 303 304
296 297 288 293 299 301 302 302 301 302 303 300 299 299 300 298 295 295 293 289 287 290 290 298 302 304 304 304 304 303 302 304 304 305 304 304 304 304 304 305 304 304 304 304
297 297 296 300 300 300 301 301 300 303 302 303 301 296 294 294 295 291 289 287 286 293 301 303 305 304 305 306 305 306 305 304 304 305 305 304 304 304 304 305 305 305 304 303
293 295 300 300 299 299 301 304 303 305 301 296 297 293 292 297 293 291 296 292 297 302 302 304 306 304 304 305 306 306 306 306 306 305 305 305 305 306 304 304 304 304 304 304

GFSNW_sfc_thetae_030.txt.gz
Theta_e
307 307 307 307 307 306 299 293 289 301 302 287 281 281 290 294 292 295 292 291 288 287 287 286 286 286 289 295 295 289 291 285 281 284 290 294 290 287 286 280 279 284 284 286
307 307 306 307 307 306 299 290 291 302 299 281 281 287 290 293 291 292 291 289 290 290 287 283 288 289 294 295 292 290 290 283 277 280 286 291 289 291 292 288 286 283 282 285
307 306 307 307 306 306 301 291 287 290 291 289 284 285 288 289 294 293 293 290 291 288 286 287 286 287 292 295 294 298 295 285 282 275 282 288 287 290 291 288 282 285 286 289
308 307 307 307 306 306 298 292 287 289 282 286 287 288 288 289 289 292 292 289 289 287 285 285 285 289 290 293 296 295 290 284 286 286 288 289 289 289 290 288 288 285 289 291
307 307 306 307 306 306 296 288 289 291 289 289 286 287 287 288 290 290 289 287 290 290 287 288 286 288 288 287 289 290 291 284 288 284 289 289 288 290 291 290 290 290 291 293
307 307 307 307 306 303 291 293 294 294 291 287 285 284 288 290 292 292 293 291 290 289 291 295 294 293 292 291 287 286 288 287 285 280 288 288 283 289 290 293 293 293 289 295
308 307 307 307 306 305 297 294 296 292 285 288 287 290 291 291 291 289 292 292 289 293 298 296 295 292 291 291 291 292 287 284 285 282 285 277 291 297 298 298 295 301 304 305
307 308 308 308 307 306 296 294 296 294 287 290 290 291 290 291 293 290 292 293 295 296 292 287 286 286 287 290 292 291 291 287 282 281 283 288 292 293 294 294 295 304 302 306
307 308 308 308 308 307 297 295 294 295 291 287 293 289 290 288 290 290 293 295 296 293 288 287 281 280 284 285 288 294 290 290 285 284 280 280 288 293 297 298 293 304 303 304
306 307 307 308 308 308 302 297 295 295 290 293 293 291 289 294 293 289 292 292 290 291 283 278 282 283 289 281 284 286 287 287 283 283 283 286 291 293 298 291 294 303 304 304
305 306 307 307 307 308 304 297 297 294 289 291 295 296 292 292 292 288 293 289 287 287 285 282 282 284 285 286 288 287 285 283 285 287 283 281 292 293 293 296 302 304 305 308
305 304 306 307 307 308 307 297 298 298 294 294 299 300 301 300 298 294 294 291 290 292 286 283 287 284 287 286 281 292 285 288 285 287 286 293 293 296 302 302 301 302 304 306
305 305 306 306 307 307 307 300 300 296 291 292 293 294 300 302 301 303 293 290 291 293 295 289 289 284 288 284 285 289 291 295 289 290 293 293 298 301 302 303 302 304 307 307
305 305 305 306 306 307 306 300 299 295 295 290 290 301 298 303 302 302 301 294 293 292 293 289 289 287 293 288 290 289 291 293 291 290 295 297 299 300 302 303 305 304 306 307
305 306 306 306 306 306 305 301 300 299 294 291 291 297 300 301 302 301 301 298 295 293 291 291 289 295 294 294 291 286 291 291 288 288 296 296 297 301 303 303 303 305 305 306
303 304 304 305 306 306 300 295 300 300 299 294 288 294 297 300 302 301 298 298 296 295 294 293 294 299 291 288 286 292 293 298 296 293 298 298 300 303 304 304 305 306 306 308
303 304 305 305 305 303 295 295 301 305 304 296 290 288 298 301 301 301 297 299 298 297 297 294 291 293 292 290 286 292 297 299 299 301 300 297 300 300 304 306 306 307 306 307
303 304 304 305 304 303 298 300 304 305 301 297 288 287 291 302 294 292 298 294 296 297 294 293 291 292 290 287 294 296 297 297 298 299 302 301 303 303 303 305 305 304 304 305
304 304 305 301 297 299 303 309 307 306 301 291 291 284 282 303 298 297 296 294 289 295 291 292 295 290 282 289 292 294 296 297 296 300 301 301 301 301 301 301 302 302 303 304
305 302 299 297 300 308 307 301 297 297 297 297 292 292 287 294 296 295 290 291 289 285 291 293 283 283 293 295 296 296 297 298 299 295 296 297 299 299 299 299 300 302 302 303
296 293 294 297 303 300 297 293 291 292 289 291 291 291 288 297 293 291 291 284 288 282 289 292 282 281 291 298 299 299 299 299 299 299 300 302 298 300 300 299 301 301 301 302
295 295 299 298 295 294 291 289 292 291 288 292 291 292 293 295 297 289 289 282 285 283 294 288 281 289 294 299 300 297 297 300 299 299 300 301 302 302 300 301 301 299 301 301
299 296 292 290 291 285 286 281 286 290 294 295 296 293 296 294 295 289 286 281 279 288 281 283 288 294 295 297 298 298 299 301 300 299 301 301 302 302 300 298 301 300 299 299
293 291 285 286 284 287 287 288 291 297 296 295 294 293 293 293 290 290 283 287 290 281 278 280 291 295 296 298 298 297 300 301 301 301 301 300 300 299 300 299 299 298 298 298
289 289 285 285 290 292 293 295 294 298 300 295 292 292 293 288 290 290 286 282 279 277 279 285 294 299 300 298 299 297 299 300 299 301 300 300 300 299 298 299 298 298 298 298
291 289 286 288 288 290 291 293 294 299 300 298 293 289 288 287 289 285 283 279 276 280 287 295 297 299 300 300 301 299 300 300 299 300 302 301 300 300 298 300 299 298 298 297
288 287 291 289 290 290 292 293 293 299 297 292 295 288 286 290 284 283 286 282 284 289 292 297 298 298 299 301 302 301 301 298 299 299 300 299 300 300 298 296 297 298 297 297

GFSNW_sfc_thetae_033.txt.gz
Theta_e
308 307 307 307 307 305 301 290 287 300 299 287 278 280 288 293 292 294 292 291 288 285 286 284 285 285 289 294 293 288 289 284 280 283 288 291 288 286 285 279 279 281 280 282
307 308 307 307 306 305 300 291 288 299 296 278 279 285 289 291 291 291 290 289 290 289 285 282 286 288 294 293 292 288 288 281 277 278 284 289 286 289 287 286 283 281 278 282
308 307 307 306 306 305 300 292 285 288 289 287 283 283 285 288 293 292 292 290 290 287 285 288 285 286 291 293 293 297 293 286 281 277 280 286 283 287 290 287 280 283 284 286
309 308 307 307 306 305 296 290 285 287 281 284 286 284 286 286 287 293 293 288 289 288 284 286 285 287 289 292 294 292 289 282 284 285 287 288 287 286 287 287 287 283 286 287
308 308 308 308 306 304 294 286 286 288 286 288 288 286 285 287 288 290 288 288 289 289 286 287 285 288 288 287 289 287 288 281 286 284 288 287 285 288 289 289 290 289 289 288
308 308 308 308 307 301 289 290 291 289 286 285 285 284 288 288 290 291 293 291 290 287 289 292 292 292 292 291 289 284 285 284 281 278 285 286 282 287 289 290 291 290 287 293
307 308 308 308 308 303 298 293 291 289 281 285 284 288 289 289 289 288 292 292 289 293 297 294 293 291 290 290 290 290 283 283 283 280 283 274 287 296 295 291 294 295 296 301
307 306 307 308 308 307 299 297 294 290 281 286 286 289 288 289 291 290 292 292 296 295 291 286 286 284 286 288 289 289 289 285 282 279 280 285 290 292 291 290 292 300 300 302
307 306 307 308 308 308 301 298 297 292 288 282 291 287 289 288 288 290 291 294 294 291 287 286 281 278 285 284 287 294 290 289 284 283 278 277 289 292 295 295 287 299 301 301
306 305 305 306 307 308 304 299 298 294 288 288 288 287 286 292 292 289 291 290 288 289 285 278 280 281 288 280 282 285 286 285 282 281 280 286 291 292 293 287 290 300 302 302
305 305 305 305 306 307 305 299 299 296 290 291 291 291 289 292 291 288 290 289 287 286 283 282 280 282 285 285 288 286 284 282 284 284 282 280 292 290 291 296 300 303 302 302
304 305 306 306 306 307 307 299 300 301 294 292 295 295 296 297 296 293 294 290 290 287 287 282 287 284 286 285 280 292 284 287 284 285 285 289 290 290 299 303 302 303 302 304
303 303 306 306 306 306 306 301 301 297 292 290 289 290 296 298 298 300 292 291 292 288 295 290 288 284 287 283 286 288 291 295 289 289 292 294 296 300 301 303 302 304 305 305
302 302 304 305 306 306 306 301 301 297 293 286 288 298 296 301 300 299 300 297 295 294 294 289 288 286 292 288 290 287 290 292 290 290 294 296 298 300 302 302 305 305 307 307
302 302 303 304 304 305 304 303 302 301 293 289 289 294 298 299 299 298 300 296 295 293 290 290 288 293 293 294 291 287 290 291 289 287 294 295 296 301 303 303 304 305 306 306
302 302 303 303 304 305 301 292 299 301 298 291 287 292 295 298 300 300 298 297 296 295 293 292 295 294 295 288 285 291 295 297 296 295 299 299 301 302 305 304 305 306 306 307
301 302 303 303 304 302 296 290 300 302 300 293 289 285 293 299 301 297 298 299 296 297 296 293 289 293 291 287 283 289 295 297 297 300 299 297 300 300 304 305 305 306 306 306
302 303 304 305 305 303 298 300 303 304 299 298 286 286 288 300 294 294 298 296 297 298 297 293 290 291 290 283 290 293 296 296 297 299 301 301 303 302 301 303 304 303 302 304
303 304 306 301 298 296 301 309 307 304 300 291 290 287 281 297 299 296 296 298 292 297 294 291 291 286 281 287 290 292 294 293 295 299 299 299 299 298 299 300 300 301 301 302
303 300 298 297 299 304 304 301 297 297 298 297 291 292 286 291 292 292 289 291 288 289 292 293 282 282 291 293 294 295 295 297 297 295 296 297 297 298 298 299 299 300 301 301
291 288 291 297 302 298 297 293 291 291 290 291 290 289 287 293 288 289 290 283 285 282 289 290 282 282 290 295 296 297 298 297 299 301 300 299 298 297 298 298 298 298 299 299
290 291 296 297 293 290 290 289 292 289 287 290 288 290 290 292 296 289 287 282 283 282 293 289 281 288 293 295 297 296 297 300 298 300 300 299 300 299 298 298 297 297 297 298
295 294 292 290 290 284 286 281 285 290 293 294 294 292 294 293 293 288 285 280 279 286 278 281 285 291 294 296 296 295 299 300 301 298 299 299 299 298 297 296 297 297 297 297
290 290 284 285 283 284 285 287 291 296 298 296 293 293 293 292 289 288 283 286 283 276 275 279 288 292 294 296 297 296 297 298 299 299 299 298 298 297 297 296 296 296 295 296
286 289 282 284 287 289 292 295 295 297 299 297 293 292 292 286 288 288 285 282 276 278 278 282 290 295 298 297 297 297 298 298 298 299 299 298 297 296 296 296 296 295 295 295
288 287 286 287 285 286 289 290 290 295 298 297 295 289 288 287 286 284 282 279 276 279 282 290 294 298 299 299 302 298 299 299 297 298 300 299 298 296 296 297 296 295 295 294
285 285 290 288 286 287 288 289 290 292 291 292 294 286 286 289 286 282 282 280 283 286 289 293 296 298 299 298 301 300 301 298 297 298 297 297 298 297 296 294 294 295 295 294